Wind_Speed
46 45 45 46 48 49 48 47 45 45 43 40 37 39 42 43 43 41 40 40 39 39 39 39 40 40 44 49 50 49 48 45 41 40 39 36 34 32 29 27 26 28
48 47 46 46 48 49 49 47 46 46 45 41 38 39 41 43 44 42 41 39 36 34 34 33 33 35 39 46 51 51 49 46 42 39 36 32 31 31 28 25 23 24
50 49 47 46 47 48 49 48 46 46 46 42 40 39 40 41 42 43 43 39 33 30 29 28 27 29 32 39 47 51 50 46 41 40 38 34 31 30 26 22 22 23
51 50 48 46 45 47 48 48 46 47 47 44 41 40 40 41 41 40 42 40 33 28 27 27 27 27 28 33 39 45 49 48 43 41 39 34 30 28 25 24 26 26
53 51 49 47 45 45 46 47 46 48 49 45 42 41 42 43 43 40 41 40 36 32 30 30 29 29 30 33 35 37 41 45 45 43 38 32 30 29 29 30 31 31
53 51 49 47 45 44 43 45 46 49 51 47 42 43 43 44 45 44 42 40 38 35 33 32 33 32 33 35 37 36 36 40 43 41 36 32 32 32 33 34 36 36
52 50 49 46 45 43 41 42 45 49 52 48 44 43 42 42 45 45 43 41 37 35 34 34 35 35 35 36 37 35 33 33 34 34 33 32 34 36 36 38 39 38
51 49 48 45 44 42 40 40 43 48 52 50 43 41 41 41 44 46 43 38 34 33 35 36 37 37 36 35 34 30 29 28 30 31 33 35 37 38 38 40 39 36
50 48 47 44 42 41 39 37 41 48 52 51 43 38 39 38 40 44 44 39 33 32 35 37 38 37 34 34 32 31 31 33 35 36 37 38 38 39 40 41 38 35
49 47 45 43 41 40 38 35 40 47 52 52 44 38 37 35 34 37 41 41 37 36 38 41 41 39 38 39 40 40 40 40 39 38 38 39 40 41 42 41 37 35
49 46 43 41 39 38 36 34 38 46 51 53 47 40 37 35 32 31 33 36 37 39 42 44 44 43 42 44 46 45 44 42 41 39 38 39 39 40 40 38 36 35
49 45 42 39 37 37 35 34 36 44 50 52 50 44 39 37 35 32 31 32 35 38 41 42 44 44 44 45 46 45 45 44 42 40 37 37 37 37 37 37 37 36
49 45 40 36 36 36 34 33 35 41 48 50 49 46 41 39 38 35 33 34 34 37 39 41 44 45 45 45 45 44 45 45 43 40 37 37 37 38 38 39 38 35
48 44 39 34 35 35 33 33 35 39 45 47 47 45 43 42 41 37 36 37 38 38 40 40 43 46 47 46 45 45 46 46 43 41 39 39 40 40 41 40 38 34
48 43 38 32 33 34 32 32 34 38 43 45 44 44 43 42 43 42 40 40 42 42 39 37 40 45 47 47 48 48 48 47 45 44 43 42 42 42 42 40 38 35
48 43 37 31 32 34 32 31 34 38 44 46 45 44 43 40 41 45 46 46 47 45 41 38 40 43 46 48 51 51 52 51 49 47 46 44 43 42 41 39 37 36
48 42 37 31 31 34 32 32 35 40 46 50 48 47 46 42 39 43 47 49 51 50 47 44 43 45 47 49 50 50 51 51 50 48 46 44 42 41 40 39 37 36
49 43 37 32 30 34 34 33 36 42 48 53 53 51 50 48 45 43 44 47 50 52 53 51 47 48 51 51 50 50 50 49 48 48 45 43 41 41 40 40 39 38
52 44 38 33 31 34 36 35 38 43 48 52 54 55 54 52 51 48 46 47 47 50 54 56 54 54 55 54 52 50 49 48 48 48 46 43 43 43 42 42 41 41
54 46 39 34 32 35 38 38 39 43 47 50 52 55 56 56 55 52 50 50 50 49 51 54 56 58 59 57 55 52 50 49 48 48 47 45 45 45 45 44 44 43
56 49 41 35 34 36 39 40 41 43 47 50 51 53 55 57 58 57 54 53 52 51 50 51 53 56 58 57 56 55 53 51 50 49 48 46 47 48 48 48 47 47
57 52 44 37 35 38 41 42 42 44 46 49 51 53 55 56 58 59 58 55 54 54 53 53 55 57 58 57 56 56 55 53 51 50 49 48 50 52 53 52 50 49
57 53 48 40 36 39 43 44 44 45 47 49 51 54 56 58 59 60 59 57 56 56 56 57 58 59 58 57 56 54 53 53 52 52 51 52 54 56 57 55 53 52
57 55 51 45 39 40 45 47 46 46 47 49 52 54 56 59 61 62 62 60 58 58 59 59 59 59 58 56 55 54 53 53 53 54 55 56 57 59 59 58 56 55
57 55 54 49 43 41 46 50 50 48 49 50 52 55 57 58 60 61 62 62 61 61 60 61 61 60 58 57 56 56 56 56 56 57 59 60 60 60 61 61 59 58
59 56 55 53 48 43 45 52 55 52 52 52 54 56 58 60 60 60 60 61 62 62 62 62 62 62 62 61 60 59 59 59 60 61 62 63 63 62 62 63 62 62
Wind_Direction
292 291 287 280 274 270 266 259 251 246 241 239 242 239 231 227 229 235 237 238 243 247 248 248 247 246 239 233 233 235 237 241 246 252 256 256 256 257 257 254 256 265
294 294 288 281 275 270 266 259 250 242 237 235 237 237 232 228 228 232 235 236 241 246 247 246 246 248 244 237 234 234 236 240 246 254 256 252 251 255 255 253 258 271
297 295 290 282 277 272 266 259 249 238 233 232 233 233 230 228 230 233 234 235 237 239 241 242 244 248 249 245 241 237 236 238 245 253 254 249 247 251 252 256 266 273
300 297 291 285 279 273 266 259 248 235 229 229 230 230 227 227 231 235 236 234 232 232 236 239 242 246 252 254 249 243 239 238 242 249 249 244 242 245 252 261 268 272
302 299 293 288 283 275 266 259 248 233 226 225 226 227 227 227 229 234 237 236 233 234 237 239 242 247 254 257 252 247 242 238 238 243 244 237 235 245 257 265 270 276
304 300 295 291 285 277 267 257 246 232 223 221 222 225 228 229 229 231 237 238 237 239 240 241 245 252 259 256 249 245 243 239 237 238 235 232 239 255 266 271 276 280
304 300 296 293 287 278 267 255 244 231 220 216 219 224 227 230 229 230 235 241 242 242 243 245 247 255 260 252 241 238 236 233 231 230 234 242 255 267 273 276 280 280
304 300 297 294 287 278 268 254 240 229 219 213 217 225 229 232 231 230 234 241 242 240 243 246 247 253 255 242 232 230 228 228 233 240 251 260 268 273 275 277 278 278
305 301 298 294 286 277 269 254 237 227 217 211 215 225 230 233 235 233 235 240 241 236 238 241 242 247 246 235 234 240 242 246 252 258 263 268 270 273 274 275 275 279
305 301 299 294 285 276 269 254 236 225 215 210 214 222 225 229 235 236 237 241 241 237 235 236 238 241 241 239 244 251 253 256 260 263 266 269 271 272 272 272 273 280
304 302 299 293 283 274 267 254 235 223 213 210 213 217 218 223 229 233 236 239 240 238 237 238 238 240 241 242 247 251 253 257 259 261 265 267 268 268 267 268 272 281
304 302 300 292 281 273 265 252 235 221 213 210 213 214 214 218 222 225 230 234 237 239 240 239 238 238 241 243 245 249 252 255 256 256 257 259 262 264 265 270 275 281
304 302 300 291 279 270 262 249 234 221 213 211 212 213 213 216 216 219 225 229 232 238 240 240 239 238 240 242 243 246 249 252 251 250 252 258 262 266 269 273 276 278
303 301 298 289 275 267 258 245 232 220 212 210 210 212 214 217 216 216 223 225 226 230 234 237 240 241 240 240 240 242 246 247 247 248 253 260 264 268 271 272 273 274
301 299 297 286 270 262 253 239 227 217 209 206 207 209 214 218 217 216 219 221 221 224 228 233 239 242 241 238 238 240 243 245 247 250 254 259 264 267 269 270 270 268
299 297 295 284 266 256 247 233 222 213 205 202 203 208 211 214 217 219 222 222 220 221 224 227 233 240 242 240 240 241 243 245 248 251 255 258 262 264 265 265 265 264
297 295 292 282 261 249 241 227 217 210 204 202 203 207 209 210 214 221 226 227 224 222 223 226 232 239 243 242 242 243 244 246 249 252 255 257 259 260 259 258 259 261
295 293 290 281 259 244 235 223 214 209 206 205 207 208 210 212 216 220 224 227 227 225 225 227 231 237 240 241 241 243 244 246 249 250 252 254 255 255 254 255 257 259
293 291 288 280 259 241 231 221 214 209 208 209 211 212 213 216 219 223 225 226 227 227 226 226 229 234 237 238 238 239 241 245 248 249 251 253 253 251 251 253 256 258
291 289 285 278 261 241 229 221 215 211 209 211 214 216 217 219 221 224 227 227 226 227 228 228 231 234 236 237 237 237 240 245 248 250 251 253 252 250 250 252 254 256
288 286 283 276 261 243 229 221 216 214 212 213 215 218 219 221 223 224 226 228 227 226 228 230 232 234 235 237 239 240 242 246 248 250 252 252 249 247 248 251 253 255
285 283 281 275 262 245 232 223 218 216 215 215 217 219 220 221 223 224 225 227 228 228 229 231 232 233 235 238 242 244 246 247 247 248 249 248 246 245 246 249 253 254
281 280 279 275 263 247 234 226 221 218 218 218 220 222 222 222 223 224 225 226 228 230 231 232 233 235 237 240 242 244 245 246 247 248 248 246 245 245 246 248 251 253
278 277 276 273 265 249 236 228 224 222 221 221 222 224 226 225 225 226 226 227 229 231 232 233 233 235 236 238 240 242 243 243 245 247 247 246 246 246 247 249 251 252
274 273 272 271 266 253 238 229 226 225 224 224 225 226 228 229 229 229 229 230 231 232 232 233 233 234 235 237 239 241 242 242 243 244 245 245 245 245 247 248 250 252
272 270 269 267 265 258 243 231 226 225 225 226 226 227 229 230 230 231 231 231 231 232 232 233 234 235 237 239 240 241 241 241 241 242 242 243 244 245 246 248 249 251
Height
10648 10647 10645 10642 10640 10639 10638 10639 10640 10641 10643 10645 10646 10647 10649 10652 10654 10655 10657 10658 10660 10662 10664 10664 10665 10667 10668 10670 10672 10674 10675 10678 10680 10682 10683 10685 10686 10686 10688 10689 10691 10691
10640 10639 10637 10635 10633 10631 10630 10631 10633 10635 10638 10640 10641 10642 10644 10646 10649 10651 10652 10654 10656 10659 10660 10661 10662 10662 10663 10665 10666 10668 10670 10673 10676 10677 10679 10680 10680 10680 10682 10685 10686 10686
10633 10631 10629 10627 10625 10623 10622 10622 10625 10629 10632 10634 10636 10638 10639 10641 10643 10646 10647 10650 10654 10656 10657 10658 10659 10659 10659 10660 10661 10663 10666 10670 10672 10673 10675 10676 10676 10676 10678 10681 10682 10682
10626 10623 10621 10619 10617 10615 10613 10614 10617 10621 10625 10628 10631 10633 10634 10635 10638 10640 10643 10647 10651 10654 10655 10655 10656 10656 10656 10657 10657 10658 10661 10665 10668 10668 10670 10672 10672 10673 10675 10676 10676 10677
10618 10615 10612 10611 10609 10607 10606 10606 10609 10614 10618 10622 10626 10628 10629 10630 10633 10636 10638 10643 10648 10650 10651 10652 10652 10653 10654 10654 10653 10654 10656 10659 10662 10664 10665 10667 10668 10669 10670 10671 10672 10672
10612 10608 10605 10603 10601 10599 10598 10598 10601 10606 10611 10617 10621 10623 10624 10625 10629 10632 10635 10639 10644 10647 10648 10648 10648 10649 10650 10650 10650 10651 10651 10654 10657 10659 10661 10663 10663 10664 10666 10667 10667 10668
10606 10602 10598 10595 10593 10591 10591 10591 10593 10599 10605 10611 10616 10618 10620 10622 10625 10629 10632 10635 10640 10643 10644 10645 10645 10645 10646 10646 10646 10647 10647 10649 10653 10655 10657 10658 10659 10660 10661 10661 10662 10662
10600 10596 10592 10589 10586 10584 10584 10585 10587 10592 10599 10607 10613 10616 10618 10620 10623 10627 10630 10633 10636 10639 10641 10641 10641 10641 10641 10641 10642 10643 10644 10646 10649 10651 10652 10653 10654 10654 10655 10655 10656 10656
10595 10590 10586 10583 10580 10578 10578 10579 10582 10587 10594 10603 10610 10613 10616 10618 10621 10625 10628 10630 10633 10635 10636 10636 10635 10636 10638 10638 10639 10639 10640 10642 10643 10645 10646 10647 10648 10648 10649 10650 10651 10651
10589 10585 10581 10578 10575 10573 10573 10574 10577 10581 10589 10598 10605 10608 10612 10615 10618 10622 10625 10627 10629 10631 10631 10630 10631 10633 10634 10634 10635 10635 10635 10636 10638 10639 10640 10641 10642 10643 10644 10645 10645 10645
10583 10580 10576 10573 10570 10569 10568 10570 10573 10577 10585 10593 10599 10602 10607 10611 10615 10619 10622 10624 10624 10625 10625 10626 10628 10629 10629 10630 10630 10630 10631 10632 10633 10634 10635 10636 10637 10638 10639 10639 10639 10640
10577 10575 10572 10568 10566 10565 10565 10566 10569 10574 10581 10588 10593 10597 10602 10607 10612 10616 10618 10619 10620 10620 10621 10623 10624 10625 10625 10625 10626 10626 10626 10627 10628 10629 10630 10631 10632 10633 10634 10634 10634 10635
10572 10570 10567 10564 10561 10561 10562 10563 10566 10571 10578 10584 10589 10593 10598 10602 10607 10612 10614 10616 10618 10618 10618 10619 10619 10619 10619 10619 10620 10621 10621 10621 10622 10623 10624 10626 10627 10627 10628 10629 10629 10630
10567 10565 10563 10560 10558 10557 10558 10560 10563 10567 10573 10579 10585 10589 10593 10597 10602 10607 10609 10611 10614 10614 10612 10614 10613 10612 10613 10614 10615 10615 10615 10616 10617 10617 10619 10620 10621 10622 10622 10623 10625 10625
10561 10560 10559 10557 10554 10553 10555 10556 10559 10563 10569 10575 10580 10583 10587 10590 10594 10598 10600 10602 10606 10606 10607 10610 10609 10606 10607 10609 10609 10609 10610 10610 10611 10612 10613 10614 10615 10616 10617 10618 10619 10620
10555 10555 10554 10553 10551 10550 10551 10553 10555 10559 10564 10569 10573 10575 10578 10582 10585 10589 10591 10594 10598 10601 10603 10605 10604 10602 10602 10602 10602 10603 10604 10605 10606 10606 10608 10609 10610 10610 10611 10612 10614 10615
10549 10549 10549 10549 10548 10546 10547 10548 10551 10554 10558 10562 10565 10567 10570 10574 10577 10580 10583 10586 10591 10595 10597 10599 10599 10598 10596 10595 10595 10597 10598 10599 10600 10601 10602 10603 10604 10605 10606 10607 10608 10609
10543 10544 10543 10543 10543 10543 10543 10544 10546 10549 10552 10555 10558 10560 10563 10566 10568 10571 10574 10578 10583 10587 10589 10591 10592 10590 10586 10586 10588 10590 10591 10593 10594 10595 10596 10597 10598 10599 10600 10601 10602 10603
10536 10538 10538 10538 10538 10539 10538 10539 10540 10543 10546 10549 10551 10554 10557 10558 10560 10563 10566 10569 10573 10577 10579 10581 10581 10578 10577 10578 10581 10583 10585 10587 10588 10589 10590 10591 10593 10594 10595 10596 10597 10598
10529 10531 10532 10532 10532 10533 10534 10534 10535 10537 10540 10542 10545 10547 10550 10551 10553 10556 10557 10559 10563 10567 10570 10572 10571 10570 10570 10572 10574 10576 10578 10580 10582 10583 10584 10586 10587 10589 10590 10591 10591 10592
10521 10523 10525 10526 10526 10527 10529 10529 10529 10531 10533 10535 10538 10540 10543 10545 10546 10548 10549 10551 10555 10559 10562 10563 10564 10564 10565 10566 10568 10570 10572 10573 10575 10576 10578 10580 10582 10583 10584 10585 10585 10586
10514 10515 10518 10519 10520 10521 10522 10523 10524 10525 10527 10529 10531 10533 10536 10538 10539 10541 10543 10545 10549 10552 10554 10555 10555 10557 10558 10560 10562 10563 10565 10567 10568 10570 10572 10574 10575 10577 10578 10578 10579 10580
10506 10507 10509 10512 10513 10514 10515 10517 10518 10519 10520 10522 10524 10526 10528 10530 10532 10534 10536 10539 10542 10545 10546 10547 10548 10550 10552 10554 10556 10557 10559 10560 10561 10563 10565 10567 10568 10570 10570 10571 10572 10573
10498 10499 10501 10504 10506 10507 10508 10509 10511 10512 10514 10515 10517 10519 10521 10523 10525 10527 10530 10533 10536 10537 10539 10540 10542 10543 10545 10548 10549 10550 10552 10553 10554 10556 10558 10559 10561 10562 10563 10564 10565 10565
10490 10491 10492 10494 10498 10499 10500 10501 10503 10504 10506 10507 10509 10511 10513 10515 10517 10520 10522 10525 10527 10529 10530 10532 10534 10536 10538 10540 10541 10543 10545 10546 10547 10549 10550 10552 10553 10555 10556 10556 10557 10558
10481 10482 10483 10485 10488 10490 10492 10493 10494 10496 10497 10499 10501 10503 10504 10506 10509 10511 10514 10517 10519 10521 10522 10524 10526 10528 10530 10531 10533 10535 10537 10539 10540 10541 10542 10544 10545 10547 10548 10549 10549 10550